User: anonymous   Login
Location: Unspecified
(0.0000°N, 0.0000°E)
Time: 09:51:12
(UTC+00:00)
Language:

Snapshot - Orbit

View from above orbital plane
View from above orbital plane
View from above satellite
View from above satellite

Ground track
Ground track

The orbit data is extracted from the following two-line orbital elements,

1  1314U 65027A   19233.79613064 -.00000018  00000-0 -91155-4 0  9999
2  1314  90.3043 306.8389 0028886 308.1875 168.8191 12.91757153309772
Epoch (UTC): 21 August 2019 19:06:25
Eccentricity: 0.0028886
inclination: 90.3043°
perigee height: 1272 km
apogee height: 1317 km
right ascension of ascending node: 306.8389°
argument of perigee: 308.1875°
revolutions per day: 12.91757153
mean anomaly at epoch: 168.8191°
orbit number at epoch: 30977

The dashed part of the orbit path shows where the satellite is in the earth's shadow,  

DLR